Tracking 20945 objects as of 8-Jul-2020
HD Live streaming from Space Station
objects crossing your sky now

TITAN 4B R/B

Track TITAN 4B R/B now!
10-day predictions
TITAN 4B R/B is classified as:


NORAD ID: 26474
Int'l Code: 2000-047B
Perigee: 547.7 km
Apogee: 625.3 km
Inclination: 68.0 °
Period: 96.3 minutes
Semi major axis: 6957 km
RCS: 15.6118 m2 (large)
Launch date: August 17, 2000
Source: United States (US)
Launch site: AIR FORCE WESTERN TEST RANGE (AFWTR)

Note: This is a ROCKET BODY
aabbcc
Your satellite tracking list
Your tracking list is empty




NASA's NSSDC Master Catalog

Two Line Element Set (TLE):
1 26474U 00047B   20190.58025944 +.00000021 +00000-0 +12802-4 0  9993
2 26474 067.9941 017.5377 0055765 179.3227 180.8002 14.95964977082404
Source of the keplerian elements: AFSPC